❰ Current Conditions

NWS Regional Weather Roundup - New England Area

REGIONAL WEATHER ROUNDUP
NATIONAL WEATHER SERVICE BOSTON/NORTON MA
200 PM EDT THU MAY 06 2021

NOTE:  "FAIR" INDICATES FEW OR NO CLOUDS BELOW 12,000 FEET WITH NO 
SIGNIFICANT WEATHER AND/OR OBSTRUCTIONS TO VISIBILITY.

MAZALL-061900-
EASTERN MASSACHUSETTS
  
CITY           SKY/WX    TMP DP  RH WIND       PRES   REMARKS
BOSTON         MOSUNNY   64  32  30 NW13G26   29.83S                  
6HR MIN TEMP:  54; 6HR MAX TEMP:  64;                                

BEVERLY        SUNNY     63  34  33 NW15G25   29.81F                  
LAWRENCE       SUNNY     62  33  33 NW14G24   29.83F                  
BEDFORD        MOSUNNY   63  34  33 NW20G28   29.82F                  
BLUE HILL        N/A     61  34  36 NW16G25   29.82S                  
NORWOOD        SUNNY     64  34  32 NW16G25   29.84S                  
MARSHFIELD     SUNNY     64  37  36 W13G21    29.83R                  
PLYMOUTH       MOSUNNY   63  36  36 NW14G23   29.82F                  
TAUNTON        SUNNY     64  34  32 N9G21     29.84R                  
NEW BEDFORD    SUNNY     63  33  32 W9G22     29.83S                  
$$

MAZALL-061900-
CAPE COD AND THE ISLANDS
  
CITY           SKY/WX    TMP DP  RH WIND       PRES   REMARKS
FALMOUTH       MOSUNNY   63  36  36 NW12      29.83S                  
HYANNIS        SUNNY     61  39  44 N12G24    29.82R                  
CHATHAM        SUNNY     60  36  40 NW8G22    29.84S                  
PROVINCETOWN   SUNNY     57  43  59 NW10      29.85R                  
NANTUCKET      SUNNY     63  41  44 NW13G20   29.84S                  
MARTHAS VNYRD  SUNNY     63  37  38 NW12G22   29.84S                  
$$
 
MAZALL-061900-
CENTRAL AND WESTERN MASSACHUSETTS
  
CITY           SKY/WX    TMP DP  RH WIND       PRES   REMARKS
WORCESTER      MOSUNNY   58  34  40 W15G23    29.86S                  
6HR MIN TEMP:  48; 6HR MAX TEMP:  58;                                

FITCHBURG      SUNNY     61  35  37 NW15G26   29.85F                  
ORANGE         SUNNY     61  33  35 NW17G25   29.87F                  
SPRINGFIELD    MOSUNNY   62  32  33 N6G24     29.85F                  
WESTFIELD      SUNNY     63  35  35 NW14G25   29.87F                  
NORTH ADAMS    MOSUNNY   58  33  39 NW9G22    29.90F                  
PITTSFIELD     MOSUNNY   56  35  45 NW18G28   29.89F                  
$$
 
RIZALL-061900-
RHODE ISLAND
  
CITY           SKY/WX    TMP DP  RH WIND       PRES   REMARKS
PROVIDENCE     MOSUNNY   63  35  35 NW17G24   29.85S                  
6HR MIN TEMP:  55; 6HR MAX TEMP:  65;                                

NEWPORT        SUNNY     62  37  39 NW9G20    29.85S                  
BLOCK ISLAND   SUNNY     60  40  47 W12       29.87F                  
SMITHFIELD       N/A     61  36  39 NW12G21   29.85S                  
WESTERLY       SUNNY     60  33  36 VRB7G18   29.86S                  
$$
 
CTZALL-061900-
CONNECTICUT
  
CITY           SKY/WX    TMP DP  RH WIND       PRES   REMARKS
BRADLEY INTL   MOSUNNY   63  32  31 NW14G26   29.87F                  
6HR MIN TEMP:  52; 6HR MAX TEMP:  64;                                

HARTFORD       SUNNY     64  32  30 NW15G22   29.87F                  
BRIDGEPORT     SUNNY     64  32  30 N15G25    29.89F                  
DANBURY        SUNNY     63  32  31 N12G23    29.91F                  
GROTON         SUNNY     63  37  38 NW15      29.86F                  
NEW HAVEN      SUNNY     64  32  30 N13G23    29.88F                  
CHESTER        FAIR      63  32  31 W10G20    29.87F                  
MERIDEN        SUNNY     63  29  27 NW14G22   29.88F                  
WILLIMANTIC    MOSUNNY   63  34  33 N13G24    29.87F                  
OXFORD         SUNNY     58  32  37 NW12G26   29.90F                  
$$

MEZ002-015-021-024-NHZ003-005-008-011-012-014-VTZ005-008-061900-
NORTHERN NEW ENGLAND
  
CITY           SKY/WX    TMP DP  RH WIND       PRES   REMARKS
PORTLAND ME    MOSUNNY   61  36  39 NW15G24   29.79R                  
6HR MIN TEMP:  51; 6HR MAX TEMP:  61;                                

BANGOR ME      CLOUDY    55  40  56 NW18G28   29.74R                  
CONCORD NH     SUNNY     61  29  29 NW17G25   29.83F                  
MANCHESTER NH  MOSUNNY   63  27  25 NW15G21   29.83S                  
NASHUA NH      SUNNY     62  30  29 NW21G28   29.84F                  
PORTSMOUTH NH  MOSUNNY   62  25  25 NW22      29.82S                  
JAFFREY NH     MOSUNNY   57  30  35 VRB5G17   29.86S                  
KEENE NH       PTSUNNY   58  32  37 NW12      29.87F                  
BURLINGTON VT  MOSUNNY   57  25  29 N15G22    29.93S                  
MT. WASHINGTON FOG       25  25 100 NW61G71     N/A  VSB 1/16WCI   3  
$$

NYZ052-076-061900-
EASTERN NEW YORK
  
CITY           SKY/WX    TMP DP  RH WIND       PRES   REMARKS
ALBANY         MOSUNNY   55  35  47 W12G25    29.93F                  
6HR MIN TEMP:  46; 6HR MAX TEMP:  56;                                

NEW YORK CITY  MOSUNNY   63  32  31 N14       29.91F                  
6HR MIN TEMP:  54; 6HR MAX TEMP:  63;                                

$$
 
ANZALL-061900-
MARINE OBSERVATIONS
  
STATION/POSITION TIME  TEMP    WIND        PRES    VSBY  WAVE
                       AIR SEA DIR/SP/G                  HT/PER
                 (UTC) (F)     (DEG/KT/KT) (MB)    (MI)  (FT/S)
BOSTON BUOY      1740   51 47  300/ 10/ 12 1009.9F
BUZZARDS BAY     1700          320/ 16/ 17 1011.8F
NANTUCKET SOUND  1740      51                N/A
MASS BAY-STELLWA 1704   54     320/ 16/ 21 1008.7R  1 7/8  2/ 3
ISLE OF SHOALS   1700   55     310/ 23/ 27 1008.8R
S OF BLOCK IS    1726      49                N/A           3/10
$$

......................KEY.........................
  SKY/WX - SKY CONDITION/PRESENT WEATHER
  TMP    - TEMPERATURE IN FAHRENHEIT
  DWPT   - DEWPOINT IN FAHRENHEIT
  RH     - RELATIVE HUMIDITY IN PERCENT
  WIND   - DIRECTION AND SPEED IN MPH
  PRES   - MEAN SEA LEVEL PRESSURE IN INCHES OF HG
  WCI    - WIND CHILL INDEX
  VSB    - VISIBILITY IN MILES
  HX     - HEAT INDEX
  TC     - TEMPERATURE IN CELSIUS
  VRB    - VARIABLE WIND DIRECTION